Regional Weather Roundup
Issued by NWS

Home | Current Version | Previous Version | Graphics & Text | Print | Product List | Glossary On
Versions: 1 2 3 4 5 6 7 8 9 10 11 12 13 14 15 16 17 18 19 20 21 22 23 24 25 26 27 28 29 30 31 32 33 34 35 36 37 38 39 40 41 42 43 44 45 46 47 48 49 50
000
ASUS45 KBOU 201007
RWRCO

WEATHER ROUNDUP FOR COLORADO
NATIONAL WEATHER SERVICE DENVER/BOULDER CO
400 AM MDT FRI OCT 20 2017

NOTE: "FAIR" INDICATES FEW OR NO CLOUDS BELOW 12000 FEET WITH NO
SIGNIFICANT WEATHER AND/OR OBSTRUCTIONS TO VISIBILITY.

COZ001>005-013-030-031-201100-
...NORTHWEST COLORADO...

CITY           SKY/WX    TMP DP  RH WIND       PRES   REMARKS
CRAIG          FAIR      33  28  81 CALM      29.88F
HAYDEN         FAIR      45  30  55 E7        29.91F
MEEKER         FAIR      43  31  62 NE7       29.89F
RABBIT EARS PA PTSUNNY   37  28  70 S9G18     30.10F
STEAMBOAT SPGS FAIR      41  30  65 SW3       29.93F
WALDEN         NOT AVBL
$$

COZ006>008-011-201100-
...WEST CENTRAL VALLEYS...

CITY           SKY/WX    TMP DP  RH WIND       PRES   REMARKS
GRAND JUNCTION MOCLDY    58  33  39 E10       29.83F
MONTROSE       FAIR      50  31  48 SE10      29.94F
EAGLE          MOCLDY    38  28  67 CALM      29.99F
RIFLE          FAIR      47  33  58 E3        29.90F
DELTA          FAIR      52  32  45 N6        29.91F
NUCLA          NOT AVBL
$$

COZ017>023-064>068-201100-
...SOUTHWEST COLORADO...

CITY           SKY/WX    TMP DP  RH WIND       PRES   REMARKS
DURANGO        MOCLDY    42  33  70 NE5       30.04F
CORTEZ         FAIR      45  35  68 CALM      29.97F
PAGOSA SPRINGS DRIZZLE   47  35  64 CALM      30.09F
TELLURIDE      FAIR      48  33  57 SE6       30.12F
WOLF CREEK PAS CLOUDY    30  30 100 SW12G18   30.30S FOG     WCI  21
$$

COZ009-010-012-014-032>034-037-058>063-201100-
...CENTRAL COLORADO...

CITY           SKY/WX    TMP DP  RH WIND       PRES   REMARKS
ASPEN          FAIR      37  27  67 SW8       30.01F
BUENA VISTA    FAIR      35  23  62 N3        30.02F
COPPER MTN     FAIR      37  27  65 W15       30.20F
BERTHOUD PASS  FAIR      30  21  69 NW20      30.19F WCI  18
COTTONWOOD PAS FAIR      50  28  43 CALM      30.10F
GUNNISON       FAIR      32  23  69 CALM      30.06F
KREMMLING      FAIR      34  27  75 CALM      30.01F
LEADVILLE      FAIR      30  20  66 E6        30.09F WCI  24
MONARCH PASS   FAIR      32  25  74 W16       30.30F WCI  21
SALIDA         FAIR      43  23  44 CALM      30.07F
SUNLIGHT       MOCLDY    36  28  75 SW14G22   30.15F
WILKERSON PASS FAIR      37  16  41 SW17G24   30.16F
$$

COZ069>075-201100-
...SAN LUIS VALLEY/SANGRE DE CRISTO MOUNTAINS...

CITY           SKY/WX    TMP DP  RH WIND       PRES   REMARKS
ALAMOSA        FAIR      35  30  82 SE5       30.03F WCI  31
DEL NORTE      FAIR      48  31  52 W5        30.05S
LA VETA PASS   FAIR      39  32  75 SW24G35   30.22F
SAGUACHE       MOCLDY    36  21  55 NW5       30.06F
$$

COZ035-036-038>040-201100-
...NORTHERN COLORADO FRONT RANGE...

CITY           SKY/WX    TMP DP  RH WIND       PRES   REMARKS
DENVER INTL AP FAIR      48  29  47 W8        29.80F
DMNS CITY PARK   N/A     51  27  39 SE5       29.80F
AURORA         PTCLDY    50  29  45 SW8       29.82F
FRONT RANGE AP FAIR      50  32  50 SW6       29.81F
ERIE MUNI ARPT FAIR      40  33  75 S5        29.85F
BOULDER MUN AP FAIR      46  32  57 SW5       29.79F
CENTENNIAL     FAIR      47  29  49 CALM      29.83F
BROOMFIELD     FAIR      57  28  33 CALM      29.82F
FORT COLLINS   FAIR      43  36  76 S6        29.79F
LONGMONT       NOT AVBL
$$

COZ041-046-047-076>085-087-088-201100-
...PIKES PEAK/PALMER DIVIDE AND SOUTHERN FOOTHILLS...

CITY           SKY/WX    TMP DP  RH WIND       PRES   REMARKS
COLO. SPRINGS  FAIR      46  33  60 NW5       29.87F
A. F. ACADEMY  FAIR      43  28  55 NW10      29.86F
SCHRIEVER AFB  FAIR      47  31  53 CALM      29.86F
CHEYENNE MTN   FAIR      57  25  29 N5        29.83F
ELLICOTT       FAIR     N/A N/A N/A CALM      29.84F
FALCON         FAIR      49  26  40 W10       29.90F
FORT CARSON    FAIR      42  30  63 N5        29.83F
LIMON          MOCLDY    32  32 100 CALM      29.83F FOG
MONUMENT HILL  FAIR      46  25  42 SW9       29.91F
CANON CITY     FAIR      57  28  33 W18       29.83F
WALSENBURG     FAIR      59  36  41 W18G28    29.88F
TRINIDAD       FAIR      51  37  58 W16       29.87F
$$

COZ042>045-048>051-090-091-201100-
...NORTHEAST COLORADO...

CITY           SKY/WX    TMP DP  RH WIND       PRES   REMARKS
GREELEY ARPT   FAIR      35  31  85 NW5       29.78F WCI  31
AKRON          FAIR      51  40  65 S9        29.77F
BURLINGTON     FAIR      50  47  89 S14       29.80F
WRAY           NOT AVBL
YUMA           FAIR      41  41 100 W5        29.78S
STERLING       FAIR      41  37  87 W6        29.75S
HOLYOKE        FAIR      43  41  93 CALM      29.78F
FORT MORGAN    FAIR      40  32  73 W6        29.77F
$$

COZ086-089-092>099-201100-
...SOUTHEAST COLORADO...

CITY           SKY/WX    TMP DP  RH WIND       PRES   REMARKS
PUEBLO         FAIR      40  32  73 SW5       29.81F
LA JUNTA       FAIR      52  42  69 W8        29.78F
LAMAR          FAIR      58  48  69 S15       29.76F
SPRINGFIELD    NOT AVBL
$$



USA.gov is the U.S. government's official web portal to all federal, state and local government web resources and services.